| time (UTC) | temp F | wind direction | speed knots | gust knots | rain 1hr in | rain 24hr in | rain mn in | humidity % | barometer mb |
| 20260502214221 | 92 | 236 | 7.0 | 6.1 | 0.00 | 0.00 | 0.00 | 49 | 1007.0 |
| 20260502213221 | 93 | 236 | 7.0 | 6.1 | 0.00 | 0.00 | 0.00 | 49 | 1007.0 |
| 20260502212221 | 94 | 236 | 7.0 | 6.1 | 0.00 | 0.00 | 0.00 | 49 | 1007.0 |
| 20260502211221 | 95 | 236 | 7.0 | 6.1 | 0.00 | 0.00 | 0.00 | 49 | 1008.0 |
| 20260502210220 | 87 | 190 | 4.3 | 0.0 | 0.00 | 0.00 | 0.00 | 49 | 1008.0 |
| 20260502205220 | 88 | 190 | 4.3 | 0.0 | 0.00 | 0.00 | 0.00 | 49 | 1008.0 |
| 20260502204219 | 89 | 190 | 4.3 | 0.0 | 0.00 | 0.00 | 0.00 | 49 | 1008.0 |
| 20260502203219 | 90 | 190 | 4.3 | 0.0 | 0.00 | 0.00 | 0.00 | 49 | 1008.0 |
| 20260502202218 | 91 | 190 | 4.3 | 0.0 | 0.00 | 0.00 | 0.00 | 49 | 1007.0 |
| 20260502201218 | 92 | 190 | 4.3 | 0.0 | 0.00 | 0.00 | 0.00 | 49 | 1008.0 |
| 20260502200218 | 93 | 190 | 5.2 | 0.0 | 0.00 | 0.00 | 0.00 | 49 | 1008.0 |
| 20260502195217 | 88 | 190 | 5.2 | 0.0 | 0.00 | 0.00 | 0.00 | 46 | 1008.0 |
| 20260502194217 | 89 | 190 | 5.2 | 0.0 | 0.00 | 0.00 | 0.00 | 46 | 1008.0 |
| 20260502193216 | 90 | 180 | 3.5 | 0.0 | 0.00 | 0.00 | 0.00 | 46 | 1009.0 |
| 20260502192216 | 90 | 180 | 3.5 | 0.0 | 0.00 | 0.00 | 0.00 | 46 | 1009.0 |
| 20260502191216 | 91 | 180 | 3.5 | 0.0 | 0.00 | 0.00 | 0.00 | 46 | 1009.0 |
| 20260502190216 | 92 | 180 | 3.5 | 0.0 | 0.00 | 0.00 | 0.00 | 46 | 1009.0 |
| 20260502185215 | 92 | 180 | 3.5 | 0.0 | 0.00 | 0.00 | 0.00 | 46 | 1009.0 |
| 20260502184215 | 93 | 180 | 3.5 | 0.0 | 0.00 | 0.00 | 0.00 | 46 | 1009.0 |
| 20260502183215 | 88 | 180 | 3.5 | 0.0 | 0.00 | 0.00 | 0.00 | 43 | 1010.0 |
| 20260502182214 | 88 | 180 | 3.5 | 0.0 | 0.00 | 0.00 | 0.00 | 43 | 1010.0 |
| 20260502181214 | 89 | 360 | 3.5 | 0.0 | 0.00 | 0.00 | 0.00 | 43 | 1010.0 |
| 20260502180214 | 90 | 360 | 3.5 | 0.0 | 0.00 | 0.00 | 0.00 | 43 | 1010.0 |
| 20260502170212 | 87 | 10 | 3.5 | 0.0 | 0.00 | 0.00 | 0.00 | 43 | 1011.0 |
| 20260502164211 | 89 | 10 | 3.5 | 0.0 | 0.00 | 0.00 | 0.00 | 43 | 1011.0 |
| 20260502163211 | 90 | 10 | 3.5 | 0.0 | 0.00 | 0.00 | 0.00 | 43 | 1011.0 |
| 20260502162210 | 91 | 10 | 3.5 | 0.0 | 0.00 | 0.00 | 0.00 | 43 | 1011.0 |
| 20260502161210 | 87 | 187 | 1.7 | 3.5 | 0.00 | 0.00 | 0.00 | 61 | 1011.0 |
| 20260502160210 | 87 | 360 | 3.5 | 0.0 | 0.00 | 0.00 | 0.00 | 62 | 1011.0 |
| 20260502152208 | 85 | 190 | 0.0 | 0.9 | 0.00 | 0.00 | 0.00 | 73 | 1011.0 |
| 20260502151208 | 84 | 190 | 0.0 | 0.9 | 0.00 | 0.00 | 0.00 | 76 | 1011.0 |
| 20260502150208 | 82 | 0 | 0.0 | 0.0 | 0.00 | 0.00 | 0.00 | 78 | 1011.0 |
| 20260502130204 | 76 | 0 | 0.0 | 0.0 | 0.00 | 0.00 | 0.00 | 88 | 1010.0 |
| 20260502123203 | 76 | 104 | 0.9 | 0.9 | 0.00 | 0.00 | 0.00 | 74 | 1011.0 |
| 20260502122202 | 77 | 104 | 0.9 | 0.9 | 0.00 | 0.00 | 0.00 | 74 | 1010.0 |
| 20260502121202 | 75 | 104 | 0.9 | 0.9 | 0.00 | 0.00 | 0.00 | 73 | 1010.0 |
| 20260502120202 | 76 | 104 | 0.9 | 0.9 | 0.00 | 0.00 | 0.00 | 73 | 1010.0 |
| 20260502115201 | 75 | 104 | 0.9 | 0.9 | 0.00 | 0.00 | 0.00 | 74 | 1010.0 |
| 20260502114201 | 76 | 104 | 0.9 | 0.9 | 0.00 | 0.00 | 0.00 | 74 | 1010.0 |
| 20260502113201 | 75 | 37 | 0.0 | 0.9 | 0.01 | 0.00 | 0.00 | 75 | 1009.0 |
| 20260502112200 | 76 | 37 | 0.0 | 0.9 | 0.01 | 0.00 | 0.00 | 75 | 1009.0 |
| 20260502111200 | 77 | 37 | 0.0 | 0.9 | 0.01 | 0.00 | 0.00 | 75 | 1009.0 |
| 20260502110200 | 75 | 37 | 0.0 | 0.9 | 0.04 | 0.00 | 0.00 | 75 | 1009.0 |
| 20260502105159 | 76 | 37 | 0.0 | 0.9 | 0.04 | 0.00 | 0.00 | 75 | 1009.0 |
| 20260502104159 | 77 | 37 | 0.0 | 0.9 | 0.04 | 0.00 | 0.00 | 75 | 1009.0 |
| 20260502103159 | 75 | 37 | 0.0 | 0.9 | 0.00 | 0.00 | 0.00 | 75 | 1009.0 |
| 20260502102158 | 76 | 312 | 0.0 | 0.9 | 0.00 | 0.00 | 0.00 | 75 | 1009.0 |
| 20260502101158 | 77 | 312 | 0.0 | 0.9 | 0.00 | 0.00 | 0.00 | 75 | 1009.0 |
| 20260502100158 | 75 | 312 | 0.0 | 0.9 | 0.00 | 0.00 | 0.00 | 75 | 1009.0 |
| 20260502091156 | 77 | 310 | 0.9 | 0.9 | 0.00 | 0.00 | 0.00 | 75 | 1009.0 |
| 20260502090156 | 77 | 310 | 0.9 | 0.9 | 0.00 | 0.00 | 0.00 | 75 | 1009.0 |
| 20260502071153 | 77 | 276 | 0.9 | 0.9 | 0.00 | 0.00 | 0.00 | 75 | 1010.0 |
| 20260502070153 | 78 | 276 | 0.9 | 0.9 | 0.00 | 0.00 | 0.00 | 75 | 1010.0 |
| 20260502065153 | 78 | 276 | 0.9 | 0.9 | 0.00 | 0.00 | 0.00 | 75 | 1010.0 |
| 20260502064152 | 79 | 276 | 1.7 | 1.7 | 0.00 | 0.00 | 0.00 | 75 | 1010.0 |
| 20260502063152 | 76 | 270 | 0.9 | 3.5 | 0.00 | 0.00 | 0.00 | 75 | 1010.0 |
| 20260502062152 | 77 | 270 | 0.9 | 3.5 | 0.00 | 0.00 | 0.00 | 75 | 1010.0 |
| 20260502061151 | 78 | 270 | 0.9 | 3.5 | 0.00 | 0.00 | 0.00 | 75 | 1010.0 |
| 20260502060151 | 79 | 270 | 0.9 | 3.5 | 0.00 | 0.00 | 0.00 | 75 | 1010.0 |
| 20260502055151 | 80 | 270 | 1.7 | 3.5 | 0.00 | 0.00 | 0.00 | 75 | 1010.0 |
| 20260502054151 | 76 | 273 | 2.6 | 4.3 | 0.00 | 0.00 | 0.00 | 75 | 1010.0 |
| 20260502053150 | 77 | 273 | 2.6 | 4.3 | 0.00 | 0.00 | 0.00 | 75 | 1010.0 |
| 20260502052150 | 78 | 273 | 2.6 | 4.3 | 0.00 | 0.00 | 0.00 | 75 | 1010.0 |
| 20260502051150 | 76 | 273 | 2.6 | 4.3 | 0.00 | 0.00 | 0.00 | 75 | 1010.0 |
| 20260502050149 | 77 | 273 | 2.6 | 4.3 | 0.00 | 0.00 | 0.00 | 75 | 1010.0 |
| 20260502045149 | 77 | 273 | 2.6 | 4.3 | 0.00 | 0.00 | 0.00 | 75 | 1010.0 |
| 20260502044149 | 78 | 273 | 2.6 | 4.3 | 0.00 | 0.00 | 0.00 | 75 | 1010.0 |
| 20260502043149 | 76 | 276 | 3.5 | 7.0 | 0.00 | 0.00 | 0.00 | 75 | 1010.0 |
| 20260502042148 | 77 | 276 | 3.5 | 7.0 | 0.00 | 0.00 | 0.00 | 75 | 1010.0 |
| 20260502041148 | 77 | 276 | 3.5 | 7.0 | 0.00 | 0.00 | 0.00 | 75 | 1010.0 |
| 20260502040148 | 78 | 276 | 3.5 | 7.0 | 0.01 | 0.00 | 0.00 | 75 | 1010.0 |
| 20260502035148 | 76 | 279 | 4.3 | 9.6 | 0.01 | 0.00 | 0.00 | 73 | 1010.0 |
| 20260502034147 | 77 | 279 | 4.3 | 9.6 | 0.00 | 0.00 | 0.00 | 73 | 1010.0 |
| 20260502033147 | 78 | 279 | 4.3 | 9.6 | 0.01 | 0.00 | 0.00 | 73 | 1010.0 |
| 20260502032147 | 79 | 279 | 4.3 | 9.6 | 0.00 | 0.00 | 0.00 | 73 | 1010.0 |
| 20260502031146 | 80 | 279 | 4.3 | 9.6 | 0.00 | 0.00 | 0.00 | 73 | 1009.0 |
| 20260502030146 | 80 | 279 | 4.3 | 9.6 | 0.00 | 0.00 | 0.00 | 73 | 1009.0 |
| 20260502025146 | 81 | 279 | 4.3 | 9.6 | 0.00 | 0.00 | 0.00 | 73 | 1009.0 |
| 20260502024145 | 82 | 279 | 4.3 | 9.6 | 0.00 | 0.00 | 0.00 | 73 | 1009.0 |
| 20260502023145 | 83 | 279 | 4.3 | 9.6 | 0.00 | 0.00 | 0.00 | 73 | 1009.0 |
| 20260502022145 | 77 | 276 | 4.3 | 9.6 | 0.00 | 0.00 | 0.00 | 68 | 1009.0 |
| 20260502021144 | 78 | 276 | 4.3 | 9.6 | 0.00 | 0.00 | 0.00 | 68 | 1009.0 |
| 20260502020144 | 79 | 276 | 4.3 | 9.6 | 0.00 | 0.00 | 0.00 | 68 | 1009.0 |
| 20260502015143 | 80 | 276 | 4.3 | 9.6 | 0.00 | 0.00 | 0.00 | 68 | 1009.0 |
| 20260502014143 | 81 | 276 | 4.3 | 9.6 | 0.00 | 0.00 | 0.00 | 68 | 1008.0 |
| 20260502013143 | 82 | 276 | 4.3 | 9.6 | 0.00 | 0.00 | 0.00 | 68 | 1008.0 |
| 20260502012143 | 77 | 234 | 4.3 | 7.0 | 0.00 | 0.00 | 0.00 | 61 | 1008.0 |
| 20260502011142 | 78 | 234 | 4.3 | 7.0 | 0.00 | 0.00 | 0.00 | 61 | 1008.0 |
| 20260502010142 | 79 | 234 | 4.3 | 7.0 | 0.00 | 0.00 | 0.00 | 61 | 1008.0 |
| 20260502005142 | 80 | 234 | 4.3 | 7.0 | 0.00 | 0.00 | 0.00 | 61 | 1008.0 |
| 20260502004141 | 81 | 234 | 4.3 | 7.0 | 0.00 | 0.00 | 0.00 | 61 | 1008.0 |
| 20260502003141 | 81 | 234 | 4.3 | 7.0 | 0.00 | 0.00 | 0.00 | 61 | 1008.0 |
| 20260502002141 | 82 | 234 | 4.3 | 7.0 | 0.00 | 0.00 | 0.00 | 61 | 1007.0 |
| 20260502001141 | 82 | 234 | 4.3 | 7.0 | 0.00 | 0.00 | 0.00 | 61 | 1007.0 |
| 20260502000140 | 83 | 234 | 4.3 | 7.0 | 0.00 | 0.00 | 0.00 | 61 | 1007.0 |
| 20260501235140 | 84 | 234 | 4.3 | 7.0 | 0.00 | 0.00 | 0.00 | 61 | 1007.0 |
| 20260501234140 | 85 | 234 | 4.3 | 7.0 | 0.00 | 0.00 | 0.00 | 61 | 1007.0 |
| 20260501233140 | 86 | 234 | 5.2 | 7.0 | 0.00 | 0.00 | 0.00 | 61 | 1007.0 |
| 20260501232139 | 82 | 265 | 9.6 | 7.0 | 0.00 | 0.00 | 0.00 | 47 | 1006.0 |
| 20260501231139 | 83 | 265 | 9.6 | 7.0 | 0.00 | 0.00 | 0.00 | 47 | 1006.0 |
| 20260501230139 | 84 | 265 | 9.6 | 7.0 | 0.00 | 0.00 | 0.00 | 47 | 1006.0 |
| 20260501225138 | 85 | 265 | 9.6 | 7.0 | 0.00 | 0.00 | 0.00 | 47 | 1006.0 |
| 20260501224138 | 86 | 265 | 9.6 | 7.0 | 0.00 | 0.00 | 0.00 | 47 | 1006.0 |
| 20260501223138 | 87 | 265 | 9.6 | 7.0 | 0.00 | 0.00 | 0.00 | 47 | 1006.0 |
| 20260501222137 | 88 | 265 | 9.6 | 7.0 | 0.00 | 0.00 | 0.00 | 47 | 1005.0 |
| 20260501221137 | 88 | 265 | 9.6 | 7.0 | 0.00 | 0.00 | 0.00 | 47 | 1005.0 |
| 20260501220137 | 89 | 265 | 9.6 | 7.0 | 0.00 | 0.00 | 0.00 | 47 | 1005.0 |
| 20260501215136 | 90 | 265 | 9.6 | 7.0 | 0.00 | 0.00 | 0.00 | 47 | 1005.0 |